Location: Newark
(25.6108°S, 54.5803°W)
Time: 04:37:30
(UTC+00:00)

deb Explorer IX - Pass Details

Date: 29 October 2020
Orbit: 538 x 1104 km, 38.8° (Epoch: 29 November)

Event Time Altitude Azimuth Distance (km) Brightness Sun altitude
Rises 00:51:54 0° 231° (SW) 2,846 ? -36.4°
Reaches altitude 10° 00:54:40 10° 216° (SW) 1,879 ? -36.9°
Enters shadow 00:55:08 12° 211° (SSW) 1,739 ? -37.0°
Maximum altitude 00:58:03 23° 162° (SSE) 1,211 - -37.4°
Drops below altitude 10° 01:01:19 10° 109° (ESE) 1,801 - -38.0°
Sets 01:03:55 0° 93° (E) 2,694 - -38.4°
